• Em Portugal
  • Lista de países
  • Para 7 dias
  • Temperatura da água
  • Mapas de satélite
  • Mapa do tempo
  • Widgets de tempo
  • user-avatar
    Iniciar Sessão

    Previsão horária em Sliven

    Hoje, 26 Setembro, Quarta-feira

    Tempo Temperatura Precipitação Vento Pressão Humidade
    00:00 +8°C° 0 mm 2 m/s 742 mmHg 51%
    01:00 +8°C° 0 mm 2 m/s 742 mmHg 54%
    02:00 +7°C° 0 mm 3 m/s 743 mmHg 58%
    03:00 +7°C° 0 mm 3 m/s 743 mmHg 59%
    04:00 +5°C° 0 mm 3 m/s 743 mmHg 61%
    05:00 +5°C° 0 mm 3 m/s 743 mmHg 62%
    06:00 +6°C° 0 mm 4 m/s 743 mmHg 58%
    07:00 +7°C° 0 mm 5 m/s 744 mmHg 54%
    08:00 +8°C° 0 mm 6 m/s 744 mmHg 50%
    09:00 +9°C° 0 mm 7 m/s 744 mmHg 45%
    10:00 +11°C° 0 mm 7 m/s 744 mmHg 41%
    11:00 +12°C° 0 mm 7 m/s 744 mmHg 36%
    12:00 +14°C° 0 mm 7 m/s 744 mmHg 34%
    13:00 +15°C° 0 mm 7 m/s 744 mmHg 32%
    14:00 +15°C° 0 mm 7 m/s 744 mmHg 30%
    15:00 +15°C° 0 mm 7 m/s 744 mmHg 31%
    16:00 +14°C° 0 mm 7 m/s 743 mmHg 32%
    17:00 +14°C° 0 mm 6 m/s 743 mmHg 33%
    18:00 +11°C° 0 mm 6 m/s 743 mmHg 37%
    19:00 +10°C° 0 mm 5 m/s 743 mmHg 41%
    20:00 +8°C° 0 mm 4 m/s 744 mmHg 44%
    21:00 +8°C° 0 mm 4 m/s 744 mmHg 47%
    22:00 +7°C° 0 mm 4 m/s 744 mmHg 49%
    23:00 +6°C° 0 mm 4 m/s 744 mmHg 51%

    Amanhã, 27 Setembro, Quinta-feira

    Tempo Temperatura Precipitação Vento Pressão Humidade
    00:00 +6°C° 0 mm 4 m/s 744 mmHg 53%
    01:00 +5°C° 0 mm 3 m/s 744 mmHg 55%
    02:00 +5°C° 0 mm 3 m/s 744 mmHg 56%
    03:00 +4°C° 0 mm 3 m/s 743 mmHg 57%
    04:00 +4°C° 0 mm 3 m/s 743 mmHg 57%
    05:00 +4°C° 0 mm 3 m/s 743 mmHg 58%
    06:00 +5°C° 0 mm 3 m/s 743 mmHg 52%
    07:00 +6°C° 0 mm 4 m/s 743 mmHg 47%
    08:00 +7°C° 0 mm 4 m/s 743 mmHg 42%
    09:00 +10°C° 0 mm 4 m/s 743 mmHg 38%
    10:00 +12°C° 0 mm 4 m/s 743 mmHg 33%
    11:00 +14°C° 0 mm 4 m/s 743 mmHg 29%
    12:00 +15°C° 0 mm 4 m/s 742 mmHg 27%
    13:00 +17°C° 0 mm 4 m/s 742 mmHg 26%
    14:00 +18°C° 0 mm 4 m/s 741 mmHg 25%
    15:00 +17°C° 0 mm 4 m/s 741 mmHg 26%
    16:00 +17°C° 0 mm 4 m/s 741 mmHg 28%
    17:00 +17°C° 0 mm 3 m/s 740 mmHg 29%
    18:00 +14°C° 0 mm 3 m/s 740 mmHg 33%
    19:00 +13°C° 0 mm 2 m/s 740 mmHg 37%
    20:00 +10°C° 0 mm 2 m/s 740 mmHg 41%
    21:00 +9°C° 0 mm 2 m/s 740 mmHg 42%
    22:00 +9°C° 0 mm 2 m/s 740 mmHg 42%
    23:00 +8°C° 0 mm 2 m/s 740 mmHg 42%

    Depois de amanhã, 28 Setembro, Sexta-feira

    Tempo Temperatura Precipitação Vento Pressão Humidade
    00:00 +8°C° 0 mm 2 m/s 740 mmHg 41%
    01:00 +8°C° 0 mm 2 m/s 739 mmHg 41%
    02:00 +7°C° 0 mm 2 m/s 739 mmHg 40%
    03:00 +7°C° 0 mm 2 m/s 739 mmHg 40%
    04:00 +8°C° 0 mm 1 m/s 738 mmHg 40%
    05:00 +8°C° 0 mm 1 m/s 738 mmHg 40%
    06:00 +9°C° 0 mm 1 m/s 738 mmHg 37%
    07:00 +11°C° 0 mm 1 m/s 738 mmHg 34%
    08:00 +12°C° 0 mm 1 m/s 738 mmHg 31%
    09:00 +14°C° 0 mm 2 m/s 738 mmHg 31%
    10:00 +16°C° 0 mm 2 m/s 737 mmHg 31%
    11:00 +18°C° 0 mm 2 m/s 737 mmHg 31%
    12:00 +19°C° 0 mm 2 m/s 736 mmHg 31%
    13:00 +20°C° 0 mm 2 m/s 736 mmHg 31%
    14:00 +21°C° 0 mm 3 m/s 735 mmHg 30%
    15:00 +21°C° 0 mm 2 m/s 735 mmHg 33%
    16:00 +20°C° 0 mm 2 m/s 734 mmHg 36%
    17:00 +20°C° 0 mm 2 m/s 734 mmHg 39%
    18:00 +18°C° 0 mm 2 m/s 734 mmHg 47%
    19:00 +16°C° 0 mm 2 m/s 734 mmHg 55%
    20:00 +15°C° 0 mm 2 m/s 734 mmHg 63%
    21:00 +14°C° 0 mm 2 m/s 733 mmHg 66%
    22:00 +14°C° 0 mm 2 m/s 733 mmHg 69%
    23:00 +14°C° 0 mm 1 m/s 733 mmHg 71%

    29 Setembro, Sábado

    Tempo Temperatura Precipitação Vento Pressão Humidade
    00:00 +14°C° 0 mm 1 m/s 733 mmHg 71%
    01:00 +14°C° 0 mm 1 m/s 733 mmHg 71%
    02:00 +14°C° 0 mm 1 m/s 732 mmHg 71%
    03:00 +14°C° 0 mm 1 m/s 732 mmHg 73%
    04:00 +13°C° 0 mm 1 m/s 732 mmHg 75%
    05:00 +13°C° 0 mm 1 m/s 732 mmHg 77%
    06:00 +14°C° 0 mm 1 m/s 732 mmHg 73%
    07:00 +15°C° 0 mm 1 m/s 732 mmHg 68%
    08:00 +16°C° 0 mm 1 m/s 732 mmHg 64%
    09:00 +18°C° 0 mm 1 m/s 732 mmHg 62%
    10:00 +18°C° 0 mm 1 m/s 732 mmHg 59%
    11:00 +18°C° 0 mm 2 m/s 732 mmHg 57%
    12:00 +18°C° 0 mm 2 m/s 732 mmHg 56%
    13:00 +18°C° 0 mm 3 m/s 732 mmHg 55%
    14:00 +17°C° 0 mm 3 m/s 732 mmHg 55%
    15:00 +16°C° 0.4 mm 3 m/s 732 mmHg 58%
    16:00 +14°C° 0.4 mm 3 m/s 732 mmHg 61%
    17:00 +13°C° 0.4 mm 3 m/s 732 mmHg 64%
    18:00 +13°C° 0.5 mm 3 m/s 732 mmHg 67%
    19:00 +12°C° 0.5 mm 3 m/s 732 mmHg 69%
    20:00 +11°C° 0.5 mm 3 m/s 733 mmHg 72%
    21:00 +11°C° 0.8 mm 4 m/s 733 mmHg 75%
    22:00 +11°C° 0.8 mm 4 m/s 733 mmHg 77%
    23:00 +11°C° 0.8 mm 4 m/s 734 mmHg 80%

    30 Setembro, Domingo

    Tempo Temperatura Precipitação Vento Pressão Humidade
    00:00 +11°C° 0.9 mm 4 m/s 734 mmHg 82%
    01:00 +11°C° 0.9 mm 4 m/s 734 mmHg 83%
    02:00 +11°C° 0.9 mm 4 m/s 734 mmHg 85%
    03:00 +10°C° 0.5 mm 4 m/s 734 mmHg 85%
    04:00 +10°C° 0.5 mm 4 m/s 734 mmHg 84%
    05:00 +10°C° 0.5 mm 4 m/s 734 mmHg 84%
    06:00 +10°C° 0.2 mm 4 m/s 734 mmHg 82%
    07:00 +9°C° 0.2 mm 5 m/s 735 mmHg 81%
    08:00 +9°C° 0.2 mm 5 m/s 735 mmHg 80%
    09:00 +10°C° 0 mm 5 m/s 735 mmHg 76%
    10:00 +12°C° 0 mm 5 m/s 736 mmHg 73%
    11:00 +13°C° 0 mm 5 m/s 736 mmHg 69%
    12:00 +13°C° 0.1 mm 5 m/s 736 mmHg 68%
    13:00 +14°C° 0.1 mm 5 m/s 735 mmHg 66%
    14:00 +14°C° 0.1 mm 5 m/s 735 mmHg 65%
    15:00 +14°C° 0.2 mm 5 m/s 735 mmHg 66%
    16:00 +14°C° 0.2 mm 5 m/s 735 mmHg 67%
    17:00 +14°C° 0.2 mm 4 m/s 735 mmHg 69%
    18:00 +13°C° 0.5 mm 4 m/s 735 mmHg 71%
    19:00 +13°C° 0.5 mm 4 m/s 735 mmHg 73%
    20:00 +13°C° 0.5 mm 4 m/s 735 mmHg 75%
    21:00 +12°C° 0.9 mm 4 m/s 735 mmHg 77%
    22:00 +12°C° 0.9 mm 4 m/s 735 mmHg 78%
    23:00 +12°C° 0.9 mm 4 m/s 735 mmHg 80%

    1 Outubro, Segunda-feira

    Tempo Temperatura Precipitação Vento Pressão Humidade
    00:00 +12°C° 1.2 mm 4 m/s 734 mmHg 80%
    01:00 +11°C° 1.2 mm 4 m/s 734 mmHg 81%
    02:00 +11°C° 1.2 mm 4 m/s 734 mmHg 82%
    03:00 +11°C° 1 mm 4 m/s 734 mmHg 82%
    04:00 +11°C° 1 mm 4 m/s 733 mmHg 82%
    05:00 +10°C° 1 mm 4 m/s 733 mmHg 83%
    06:00 +10°C° 0.9 mm 4 m/s 733 mmHg 83%
    07:00 +10°C° 0.9 mm 4 m/s 733 mmHg 83%
    08:00 +11°C° 0.9 mm 3 m/s 732 mmHg 83%
    09:00 +11°C° 0.8 mm 3 m/s 732 mmHg 82%
    10:00 +12°C° 0.8 mm 3 m/s 732 mmHg 81%
    11:00 +12°C° 0.8 mm 3 m/s 732 mmHg 80%
    12:00 +13°C° 0.8 mm 3 m/s 732 mmHg 79%
    13:00 +13°C° 0.8 mm 3 m/s 731 mmHg 79%
    14:00 +13°C° 0.8 mm 3 m/s 731 mmHg 78%
    15:00 +13°C° 1.2 mm 3 m/s 731 mmHg 81%
    16:00 +14°C° 1.2 mm 2 m/s 731 mmHg 83%
    17:00 +13°C° 1.2 mm 2 m/s 730 mmHg 85%
    18:00 +13°C° 0.7 mm 2 m/s 731 mmHg 86%
    19:00 +13°C° 0.7 mm 2 m/s 731 mmHg 87%
    20:00 +12°C° 0.7 mm 2 m/s 731 mmHg 88%
    21:00 +12°C° 0.2 mm 2 m/s 731 mmHg 88%
    22:00 +12°C° 0.2 mm 1 m/s 731 mmHg 88%
    23:00 +12°C° 0.2 mm 1 m/s 731 mmHg 88%
    Mostrar mais